[[{"header":{"parameterUnit":"m.s-1","parameterCategory":1,"la1":30.2991,"la2":30.254,"lo1":-89.0895,"lo2":-89.0444,"dy":0.0017,"dx":0.0017,"nx":28,"ny":28,"refTime":"2025-08-15T03:00:00:Z","depth":0,"parameterNumber":2,"parameterNumberName":"U-component_of_WINDS"},"data":[0,0,0,0,0,0,0,0,0,0,0,0,0,0,0,0,0,0,0,0,0,0,0,0,0,0,0,0,0,0,0,0,0,0,0,0,0,0,0,0,0,0,0,0,0,0,0,0,0,0,0,0,0,0,0,0,0,0,3.2369,3.237,0,3.2415,3.2415,3.2416,3.233,3.2327,3.2324,3.2321,3.2369,3.2373,3.2377,0,0,0,0,0,0,0,0,0,0,0,0,0,3.2209,3.2212,3.2369,3.237,3.2371,3.2415,3.2415,3.2416,3.233,3.2327,3.2323,3.232,3.2368,3.2372,3.2377,0,0,0,0,0,0,0,0,0,0,0,0,0,3.2269,3.2213,3.2369,3.2333,3.233,3.2415,3.2415,3.2416,3.2331,3.2327,3.2322,3.2318,3.2366,3.2372,3.2378,3.25,0,0,3.2396,3.2398,0,0,0,0,0,0,0,0,3.2265,3.2275,3.2338,3.2336,3.2333,3.2362,3.2376,3.2444,3.2332,3.2331,3.2321,3.2316,3.237,3.2376,3.2393,3.2502,3.2504,3.2396,3.24,3.2402,3.2404,0,0,0,0,0,0,0,3.2261,3.2272,3.2387,3.2339,3.2336,3.2315,3.2318,3.2389,3.2374,3.2331,3.2324,3.2331,3.2368,3.2388,3.2394,3.2505,3.2396,3.2401,3.2405,3.2407,3.2714,3.2719,0,0,0,0,0,0,3.2262,3.2269,3.2386,3.2389,3.2288,3.2321,3.2325,3.2357,3.2373,3.2371,3.2335,3.2327,3.238,3.2387,3.2395,3.2538,3.2402,3.2408,3.2411,3.271,3.2715,3.272,0,0,0,0,0,0,3.2259,3.2273,3.2384,3.2327,3.234,3.2328,3.2365,3.236,3.238,3.2376,3.2373,3.2358,3.2377,3.2387,3.2474,3.2539,3.241,3.2416,3.2704,3.2712,3.2718,3.2826,0,0,0,0,0,0,3.2254,3.2272,3.2319,3.2329,3.2343,3.2462,3.2369,3.2364,3.239,3.2381,3.2397,3.2395,3.2374,3.2466,3.248,3.2544,3.242,3.2698,3.2708,3.2716,3.2816,3.2836,3.2852,0,0,0,0,0,3.2249,3.2348,3.2321,3.2336,3.2401,3.2466,3.2474,3.2448,3.2396,3.2442,3.2439,3.2395,3.253,3.2475,3.2491,3.2558,3.2694,3.2705,3.2715,3.2808,3.2832,3.2852,0,0,0,0,0,0,3.2345,3.2348,3.2319,3.2424,3.2446,3.2451,3.2509,3.2474,3.251,3.25,3.2465,3.247,3.2564,3.2569,3.2509,3.2676,3.2603,3.2617,3.2669,3.2691,3.2709,3.2705,3.2425,0,0,0,0,0,3.2379,3.2432,3.2431,3.2524,3.2536,3.2521,3.2549,3.2526,3.2547,3.2556,3.2559,3.2581,3.2628,3.266,3.2703,3.2817,3.2819,3.2871,3.2889,3.2903,3.2916,3.2975,3.2998,3.2755,3.2754,3.2754,0,0,3.2449,3.2457,3.2492,3.2544,3.2557,3.2613,3.2529,3.2591,3.2632,3.2565,3.2647,3.2651,3.2673,3.2774,3.2818,3.2782,3.2983,3.2917,3.2928,3.2933,3.2988,3.3011,3.3032,3.2762,3.276,3.2759,0,0,3.2604,3.2616,3.2693,3.2709,3.2731,3.272,3.2739,3.275,3.275,3.2831,3.2782,3.283,3.2912,3.293,3.295,3.3111,3.3071,3.3126,3.3219,3.3277,3.3296,3.3313,3.337,3.339,3.3138,3.3139,3.3139,0,3.2687,3.2768,3.2738,3.2803,3.2827,3.2769,3.2847,3.2864,3.2899,3.2917,3.2875,3.2976,3.2988,3.3091,3.313,3.3149,3.3169,3.3124,3.3296,3.3312,3.3328,3.3381,3.3403,3.3145,3.3144,3.3144,3.3143,0,3.287,3.2927,3.2987,3.3022,3.3053,3.3125,3.3105,3.314,3.3115,3.3108,3.3192,3.3203,3.3247,3.327,3.3247,3.337,3.3347,3.3301,3.3227,3.3358,3.3407,3.3428,3.3154,3.3152,3.315,3.3149,0,0,3.3087,3.3103,3.3126,3.3141,3.316,3.3204,3.3273,3.3315,3.3345,3.3372,3.3428,3.3499,3.3456,3.3479,3.3457,3.3509,3.3634,3.3456,3.3456,3.3488,3.377,3.3803,3.3827,3.3608,3.3612,3.3615,3.3767,0,3.324,3.3358,3.3332,3.3448,3.35,3.3446,3.3505,3.3524,3.352,3.3563,3.3559,3.3609,3.355,3.3563,3.3612,3.3609,3.369,3.3598,3.366,3.3663,3.3655,3.3854,3.3889,3.4033,3.3787,3.379,3.3793,0,3.3434,3.3467,3.3588,3.3598,3.3619,3.3673,3.371,3.3752,3.3772,3.3765,3.379,3.3758,3.3826,3.3752,3.3845,3.3782,3.3806,3.3809,3.3814,3.3818,3.3735,3.3862,3.4078,3.4099,3.3823,3.3821,3.3818,0,3.3578,3.3653,3.3735,3.3749,3.3764,3.3803,3.3811,3.3827,3.3854,3.3886,3.3903,3.3943,3.3964,3.3996,3.3976,3.3923,3.4072,3.3996,3.4068,3.4068,3.4101,3.4099,3.4322,3.4118,3.4118,3.4118,3.4117,0,3.3751,3.3827,3.38,3.385,3.3934,3.3904,3.3987,3.3989,3.4003,3.4052,3.4008,3.4056,3.4026,3.4071,3.4056,3.4134,3.4145,3.4141,3.4136,3.4145,3.4145,3.4159,3.4148,3.4123,3.4122,3.4121,3.412,0,3.3927,3.3911,3.3997,3.4003,3.4007,3.4068,3.4074,3.412,3.4113,3.4176,3.4189,3.4177,3.4228,3.4211,3.4266,3.4255,3.4355,3.4337,3.4348,3.4343,3.4416,3.4409,3.4656,3.4686,3.4463,3.4466,3.4467,0,3.4037,3.4094,3.4107,3.4137,3.4148,3.4197,3.4223,3.4196,3.4226,3.4253,3.4296,3.4343,3.4378,3.4462,3.4458,3.45,3.4482,3.4566,3.4488,3.4495,3.4482,3.4478,3.4484,3.4581,3.4584,3.4586,3.4587,0,3.4235,3.4225,3.4265,3.4303,3.4337,3.4366,3.439,3.4417,3.4391,3.4427,3.4478,3.4506,3.4561,3.4608,3.4645,3.4653,3.4616,3.4612,3.4631,3.4639,3.4643,3.4641,3.4389,3.4606,3.4604,3.4603,3.4602,3.4601,3.4381,3.4429,3.4445,3.4491,3.4507,3.4531,3.4575,3.4572,3.4614,3.4657,3.4638,3.4697,3.4714,3.476,3.4774,3.4819,3.4786,3.4814,3.482,3.4827,3.4836,3.4637,3.4826,3.4825,3.4825,3.4824,3.4824,0,3.4576,3.4583,3.4626,3.4662,3.4698,3.466,3.4685,3.4718,3.477,3.479,3.4826,3.4884,3.4929,3.4929,3.497,3.5007,3.4991,3.5018,3.5015,3.5017,3.4863,3.4842,3.503,3.503,3.503,3.503,3.503,3.503,3.4681,3.4759,3.4751,3.4837,3.4843,3.49,3.4918,3.4939,3.4954,3.5021,3.5058,3.5058,3.5069,3.5111,3.515,3.5149,3.5166,3.52,3.5192,3.5049,3.5028,3.5008,3.4989,3.5204,3.5204,3.5342,3.5343,3.5344]},{"header":{"parameterUnit":"m.s-1","parameterCategory":1,"la1":30.2991,"la2":30.254,"lo1":-89.0895,"lo2":-89.0444,"dy":0.0017,"dx":0.0017,"nx":28,"ny":28,"refTime":"2025-08-15T03:00:00:Z","depth":0,"parameterNumber":3,"parameterNumberName":"V-component_of_WINDS"},"data":[0,0,0,0,0,0,0,0,0,0,0,0,0,0,0,0,0,0,0,0,0,0,0,0,0,0,0,0,0,0,0,0,0,0,0,0,0,0,0,0,0,0,0,0,0,0,0,0,0,0,0,0,0,0,0,0,0,0,1.0009,1.0009,0,1.008,1.0081,1.0081,1.0093,1.0092,1.0092,1.0091,1.0163,1.0166,1.0168,0,0,0,0,0,0,0,0,0,0,0,0,0,0.9881,0.9883,1.0008,1.0009,1.001,1.008,1.0081,1.0082,1.0093,1.0092,1.0091,1.0091,1.0162,1.0165,1.0168,0,0,0,0,0,0,0,0,0,0,0,0,0,0.9943,0.9884,1.0008,1.0024,1.0026,1.0079,1.0081,1.0082,1.0093,1.0092,1.0091,1.009,1.0161,1.0165,1.0169,1.021,0,0,1.018,1.0182,0,0,0,0,0,0,0,0,0.9939,0.9947,1.0021,1.0023,1.0026,1.0076,1.0062,1.0125,1.0093,1.0068,1.0091,1.009,1.0135,1.0141,1.0156,1.0214,1.0217,1.018,1.0183,1.0184,1.0185,0,0,0,0,0,0,0,0.9935,0.9944,1.0037,1.0022,1.0025,1.0028,1.0035,1.0074,1.0106,1.007,1.0071,1.0079,1.0136,1.0153,1.0158,1.0218,1.018,1.0184,1.0186,1.0187,1.0313,1.0314,0,0,0,0,0,0,0.9928,0.9941,1.0034,1.0039,0.9979,1.0031,1.0039,1.0061,1.0105,1.0111,1.008,1.008,1.0147,1.0154,1.0161,1.0212,1.0184,1.0188,1.019,1.0312,1.0313,1.0314,0,0,0,0,0,0,0.9925,0.9936,1.0032,0.999,1.0002,1.0034,1.0058,1.0063,1.008,1.0113,1.0118,1.0091,1.0146,1.0155,1.0198,1.0215,1.0189,1.0193,1.031,1.0312,1.0314,1.0315,0,0,0,0,0,0,0.9922,0.9935,0.9952,0.999,1.0005,1.0068,1.0059,1.0065,1.0086,1.0086,1.0125,1.013,1.0146,1.0192,1.0202,1.0219,1.0196,1.0309,1.0311,1.0313,1.0314,1.0317,1.0319,0,0,0,0,0,0.9917,0.9949,0.9952,0.9964,1.0026,1.0069,1.0077,1.0095,1.0087,1.0104,1.0125,1.0129,1.0211,1.0196,1.0207,1.0226,1.0308,1.0311,1.0313,1.0313,1.0316,1.0319,0,0,0,0,0,0,0.9912,0.9955,0.9959,1.0005,1.0033,1.0071,1.0092,1.0098,1.0129,1.0128,1.0148,1.0157,1.0198,1.0217,1.0199,1.0269,1.0259,1.0264,1.0255,1.0259,1.0262,1.0256,1.0199,0,0,0,0,0,0.9916,0.9947,0.9983,1.002,1.0034,1.0061,1.008,1.0091,1.0122,1.0134,1.0158,1.0187,1.0219,1.024,1.0272,1.0317,1.0325,1.0335,1.0338,1.034,1.0344,1.0368,1.0373,1.0322,1.0322,1.0322,0,0,0.9925,0.9952,0.9971,1.002,1.0043,1.0075,1.0071,1.0105,1.0129,1.0139,1.0181,1.0199,1.0233,1.0277,1.0297,1.0293,1.0359,1.0343,1.0344,1.0347,1.0371,1.0376,1.038,1.0324,1.0323,1.0323,0,0,0.9957,0.9981,1.0015,1.0038,1.0073,1.0091,1.0099,1.0136,1.0149,1.0191,1.0199,1.0227,1.0283,1.0306,1.0325,1.0366,1.0371,1.0376,1.039,1.0414,1.0418,1.0421,1.0435,1.044,1.038,1.038,1.038,0,0.9964,1.0012,1.0031,1.0065,1.0086,1.0096,1.013,1.0152,1.0196,1.021,1.0205,1.0274,1.0298,1.0347,1.0357,1.0372,1.0381,1.0372,1.0416,1.0419,1.0423,1.0437,1.0442,1.038,1.038,1.038,1.038,0,1.0018,1.0052,1.0075,1.0117,1.014,1.0174,1.0197,1.0219,1.0228,1.0245,1.0288,1.0316,1.0354,1.0366,1.0375,1.0417,1.0413,1.0412,1.0402,1.0428,1.0441,1.0447,1.038,1.038,1.038,1.038,0,0,1.005,1.0101,1.0109,1.0128,1.0168,1.0194,1.0228,1.0265,1.0283,1.0312,1.0341,1.0387,1.0386,1.0408,1.042,1.044,1.047,1.0436,1.0438,1.0441,1.0517,1.0517,1.0523,1.0473,1.0475,1.0475,1.0514,0,1.0086,1.0147,1.0165,1.0216,1.0247,1.0257,1.0286,1.0314,1.0331,1.0359,1.0379,1.0411,1.0407,1.042,1.0441,1.0462,1.0486,1.046,1.05,1.0501,1.0491,1.053,1.0531,1.0566,1.0519,1.052,1.0521,0,1.0138,1.0168,1.0222,1.0258,1.0271,1.0298,1.0332,1.036,1.0391,1.0402,1.0426,1.0436,1.0471,1.0459,1.0507,1.0489,1.0507,1.0519,1.0521,1.0525,1.0512,1.0535,1.0577,1.0582,1.0529,1.0528,1.0528,0,1.0154,1.0209,1.0249,1.0265,1.0307,1.0325,1.0343,1.0374,1.0394,1.0425,1.0438,1.0472,1.049,1.0516,1.0535,1.0525,1.0581,1.0571,1.0591,1.059,1.0602,1.0601,1.0647,1.0614,1.0614,1.0613,1.0613,0,1.0193,1.0226,1.0257,1.0281,1.0317,1.0337,1.0373,1.0391,1.0418,1.0446,1.0457,1.0482,1.0506,1.0534,1.0549,1.0586,1.0594,1.0604,1.0607,1.0603,1.0601,1.0614,1.0612,1.0615,1.0615,1.0614,1.0614,0,1.0218,1.024,1.0284,1.032,1.033,1.0355,1.0386,1.041,1.0428,1.0463,1.0472,1.0499,1.0534,1.0555,1.0598,1.0608,1.0649,1.0651,1.0638,1.064,1.0658,1.0656,1.0714,1.0722,1.0683,1.0683,1.0684,0,1.0241,1.0267,1.0306,1.0325,1.0344,1.0375,1.0396,1.0417,1.0438,1.0475,1.0494,1.0529,1.0558,1.0612,1.0636,1.0669,1.0672,1.069,1.0677,1.0671,1.0672,1.067,1.0672,1.0692,1.0692,1.0693,1.0693,0,1.028,1.029,1.032,1.0354,1.0379,1.0407,1.0435,1.045,1.0475,1.0499,1.0534,1.0556,1.06,1.0635,1.067,1.0688,1.0694,1.0697,1.0703,1.0698,1.0689,1.0694,1.0644,1.0695,1.0695,1.0695,1.0695,1.0695,1.0305,1.0327,1.0358,1.0392,1.0415,1.044,1.0464,1.0485,1.0515,1.0553,1.0563,1.0599,1.0629,1.0677,1.0696,1.0724,1.0722,1.0731,1.0733,1.0735,1.0735,1.0685,1.0731,1.0731,1.0731,1.0731,1.0731,0,1.0344,1.0364,1.0395,1.0433,1.0459,1.0463,1.0494,1.0515,1.0548,1.0575,1.0603,1.0644,1.0677,1.0703,1.0737,1.0755,1.0758,1.0763,1.0762,1.0766,1.0736,1.0727,1.0759,1.0759,1.0759,1.0759,1.0759,1.0759,1.0367,1.0405,1.0419,1.0469,1.0489,1.0525,1.0542,1.0566,1.0588,1.0632,1.066,1.0677,1.0704,1.074,1.077,1.0777,1.0789,1.0792,1.08,1.0771,1.0768,1.0765,1.0757,1.0795,1.0795,1.0827,1.0828,1.0828]}]]